When you browse on this site, cookies collect data to enhance your experience and personalize the content and advertising you see.
Visit our Privacy Policy to learn more. By continuing to use the site, you agree to this use of cookies and data.
  • In Portugal
  • List of Countries
  • For 7 days
  • Water Temperature
  • Weather Map
  • Weather Widgets
  • user-avatar
    Login

    Hourly Weather Kitzbuhel

    Today, 22 November, Friday

    Time Temperature Precipitation Wind Pressure Humidity
    00:00 +1°C° 0 mm 3 mps 671 mmHg 84%
    01:00 0°C° 0 mm 3 mps 671 mmHg 84%
    02:00 0°C° 0 mm 3 mps 671 mmHg 83%
    03:00 0°C° 0 mm 3 mps 671 mmHg 82%
    04:00 0°C° 0 mm 3 mps 671 mmHg 82%
    05:00 0°C° 0 mm 3 mps 671 mmHg 81%
    06:00 0°C° 0 mm 3 mps 671 mmHg 81%
    07:00 0°C° 0 mm 3 mps 671 mmHg 81%
    08:00 +1°C° 0 mm 3 mps 671 mmHg 78%
    09:00 +4°C° 0 mm 2 mps 672 mmHg 75%
    10:00 +5°C° 0 mm 2 mps 672 mmHg 72%
    11:00 +6°C° 0 mm 2 mps 672 mmHg 71%
    12:00 +7°C° 0 mm 2 mps 672 mmHg 69%
    13:00 +8°C° 0 mm 2 mps 672 mmHg 68%
    14:00 +7°C° 0 mm 2 mps 671 mmHg 72%
    15:00 +6°C° 0 mm 2 mps 671 mmHg 76%
    16:00 +3°C° 0 mm 3 mps 670 mmHg 80%
    17:00 +3°C° 0 mm 3 mps 670 mmHg 80%
    18:00 +2°C° 0 mm 3 mps 670 mmHg 80%
    19:00 0°C° 0 mm 4 mps 670 mmHg 81%
    20:00 0°C° 0 mm 4 mps 670 mmHg 80%
    21:00 0°C° 0 mm 4 mps 670 mmHg 80%
    22:00 0°C° 0 mm 4 mps 669 mmHg 79%
    23:00 0°C° 0 mm 4 mps 669 mmHg 79%

    Tomorrow, 23 November, Saturday

    Time Temperature Precipitation Wind Pressure Humidity
    00:00 0°C° 0 mm 4 mps 669 mmHg 80%
    01:00 0°C° 0 mm 4 mps 669 mmHg 80%
    02:00 +1°C° 0 mm 4 mps 669 mmHg 79%
    03:00 +1°C° 0 mm 4 mps 668 mmHg 79%
    04:00 +1°C° 0 mm 4 mps 668 mmHg 78%
    05:00 +1°C° 0 mm 4 mps 668 mmHg 78%
    06:00 +1°C° 0 mm 4 mps 668 mmHg 78%
    07:00 +1°C° 0 mm 4 mps 668 mmHg 78%
    08:00 +3°C° 0 mm 4 mps 668 mmHg 76%
    09:00 +4°C° 0 mm 4 mps 668 mmHg 73%
    10:00 +6°C° 0 mm 4 mps 668 mmHg 70%
    11:00 +7°C° 0 mm 4 mps 667 mmHg 70%
    12:00 +8°C° 0 mm 4 mps 667 mmHg 69%
    13:00 +10°C° 0 mm 4 mps 667 mmHg 68%
    14:00 +8°C° 0 mm 4 mps 667 mmHg 71%
    15:00 +7°C° 0 mm 4 mps 667 mmHg 75%
    16:00 +6°C° 0 mm 4 mps 666 mmHg 78%
    17:00 +5°C° 0 mm 4 mps 666 mmHg 79%
    18:00 +5°C° 0 mm 4 mps 667 mmHg 80%
    19:00 +4°C° 0 mm 4 mps 667 mmHg 81%
    20:00 +4°C° 0 mm 4 mps 667 mmHg 81%
    21:00 +4°C° 0 mm 4 mps 667 mmHg 81%
    22:00 +4°C° 0 mm 4 mps 667 mmHg 81%
    23:00 +4°C° 0 mm 4 mps 667 mmHg 82%

    Day after tomorrow, 24 November, Sunday

    Time Temperature Precipitation Wind Pressure Humidity
    00:00 +4°C° 0 mm 4 mps 668 mmHg 82%
    01:00 +4°C° 0 mm 4 mps 668 mmHg 82%
    02:00 +4°C° 0 mm 4 mps 668 mmHg 82%
    03:00 +4°C° 0 mm 3 mps 668 mmHg 82%
    04:00 +4°C° 0 mm 3 mps 668 mmHg 82%
    05:00 +4°C° 0 mm 3 mps 668 mmHg 82%
    06:00 +4°C° 0 mm 3 mps 669 mmHg 83%
    07:00 +4°C° 0 mm 3 mps 669 mmHg 83%
    08:00 +5°C° 0 mm 3 mps 669 mmHg 81%
    09:00 +7°C° 0 mm 2 mps 670 mmHg 79%
    10:00 +8°C° 0 mm 2 mps 671 mmHg 77%
    11:00 +9°C° 0 mm 2 mps 671 mmHg 76%
    12:00 +9°C° 0 mm 2 mps 671 mmHg 75%
    13:00 +10°C° 0 mm 2 mps 671 mmHg 74%
    14:00 +10°C° 0 mm 1 mps 671 mmHg 78%
    15:00 +9°C° 0 mm 1 mps 671 mmHg 83%
    16:00 +8°C° 0 mm 1 mps 671 mmHg 87%
    17:00 +7°C° 0 mm 1 mps 671 mmHg 88%
    18:00 +6°C° 0 mm 1 mps 671 mmHg 88%
    19:00 +6°C° 0 mm 1 mps 672 mmHg 89%
    20:00 +5°C° 0 mm 1 mps 672 mmHg 88%
    21:00 +5°C° 0 mm 1 mps 672 mmHg 87%
    22:00 +5°C° 0 mm 1 mps 672 mmHg 87%
    23:00 +5°C° 0 mm 1 mps 672 mmHg 86%

    25 November, Monday

    Time Temperature Precipitation Wind Pressure Humidity
    00:00 +5°C° 0 mm 1 mps 672 mmHg 86%
    01:00 +4°C° 0 mm 1 mps 672 mmHg 85%
    02:00 +4°C° 0 mm 1 mps 672 mmHg 85%
    03:00 +4°C° 0 mm 1 mps 672 mmHg 85%
    04:00 +4°C° 0 mm 1 mps 672 mmHg 84%
    05:00 +4°C° 0 mm 1 mps 672 mmHg 84%
    06:00 +4°C° 0 mm 1 mps 672 mmHg 84%
    07:00 +4°C° 0 mm 1 mps 672 mmHg 84%
    08:00 +5°C° 0 mm 1 mps 672 mmHg 81%
    09:00 +6°C° 0 mm 0 mps 672 mmHg 78%
    10:00 +7°C° 0 mm 0 mps 673 mmHg 76%
    11:00 +8°C° 0 mm 0 mps 673 mmHg 75%
    12:00 +8°C° 0 mm 0 mps 672 mmHg 75%
    13:00 +9°C° 0 mm 0 mps 672 mmHg 74%
    14:00 +8°C° 0 mm 0 mps 672 mmHg 79%
    15:00 +7°C° 0 mm 0 mps 672 mmHg 84%
    16:00 +6°C° 0 mm 0 mps 671 mmHg 89%
    17:00 +5°C° 0 mm 0 mps 671 mmHg 89%
    18:00 +6°C° 0 mm 1 mps 672 mmHg 88%
    19:00 +6°C° 0 mm 1 mps 672 mmHg 88%
    20:00 +6°C° 0 mm 1 mps 672 mmHg 86%
    21:00 +6°C° 0 mm 1 mps 672 mmHg 85%
    22:00 +6°C° 0 mm 1 mps 672 mmHg 83%
    23:00 +6°C° 0 mm 1 mps 672 mmHg 83%

    26 November, Tuesday

    Time Temperature Precipitation Wind Pressure Humidity
    00:00 +5°C° 0 mm 0 mps 672 mmHg 83%
    01:00 +5°C° 0 mm 0 mps 672 mmHg 83%
    02:00 +5°C° 0 mm 0 mps 672 mmHg 85%
    03:00 +5°C° 0 mm 0 mps 672 mmHg 87%
    04:00 +5°C° 0 mm 0 mps 672 mmHg 88%
    05:00 +6°C° 0.1 mm 1 mps 672 mmHg 90%
    06:00 +6°C° 0.1 mm 1 mps 672 mmHg 92%
    07:00 +6°C° 0.1 mm 1 mps 673 mmHg 94%
    08:00 +5°C° 0.1 mm 0 mps 673 mmHg 93%
    09:00 +5°C° 0.1 mm 0 mps 673 mmHg 93%
    10:00 +6°C° 0.1 mm 0 mps 673 mmHg 92%
    11:00 +6°C° 0 mm 0 mps 673 mmHg 90%
    12:00 +7°C° 0 mm 0 mps 673 mmHg 88%
    13:00 +7°C° 0 mm 0 mps 672 mmHg 87%
    14:00 +6°C° 0 mm 0 mps 672 mmHg 89%
    15:00 +6°C° 0 mm 0 mps 672 mmHg 91%
    16:00 +6°C° 0 mm 1 mps 671 mmHg 93%
    17:00 +6°C° 0 mm 1 mps 671 mmHg 92%
    18:00 +5°C° 0 mm 1 mps 671 mmHg 91%
    19:00 +4°C° 0 mm 2 mps 670 mmHg 90%
    20:00 +4°C° 0 mm 2 mps 670 mmHg 88%
    21:00 +4°C° 0 mm 2 mps 670 mmHg 86%
    22:00 +3°C° 0 mm 3 mps 670 mmHg 84%
    23:00 +3°C° 0 mm 3 mps 669 mmHg 83%

    27 November, Wednesday

    Time Temperature Precipitation Wind Pressure Humidity
    00:00 +3°C° 0 mm 3 mps 669 mmHg 83%
    01:00 +3°C° 0 mm 3 mps 668 mmHg 82%
    02:00 +4°C° 0 mm 2 mps 668 mmHg 83%
    03:00 +4°C° 0 mm 2 mps 668 mmHg 83%
    04:00 +4°C° 0 mm 2 mps 668 mmHg 83%
    05:00 +5°C° 0 mm 1 mps 668 mmHg 84%
    06:00 +4°C° 0 mm 1 mps 668 mmHg 85%
    07:00 +4°C° 0 mm 1 mps 668 mmHg 85%
    08:00 +5°C° 0 mm 1 mps 668 mmHg 84%
    09:00 +6°C° 0 mm 1 mps 668 mmHg 83%
    10:00 +6°C° 0 mm 0 mps 668 mmHg 82%
    11:00 +6°C° 0.2 mm 1 mps 668 mmHg 85%
    12:00 +6°C° 0.2 mm 1 mps 668 mmHg 89%
    13:00 +6°C° 0.2 mm 1 mps 667 mmHg 93%
    14:00 +6°C° 1 mm 1 mps 667 mmHg 93%
    15:00 +5°C° 1 mm 1 mps 667 mmHg 94%
    16:00 +5°C° 1 mm 1 mps 667 mmHg 95%
    17:00 +5°C° 0.5 mm 1 mps 667 mmHg 95%
    18:00 +4°C° 0.5 mm 1 mps 667 mmHg 95%
    19:00 +4°C° 0.5 mm 1 mps 667 mmHg 95%
    20:00 +3°C° 0 mm 1 mps 667 mmHg 93%
    21:00 +3°C° 0 mm 1 mps 667 mmHg 91%
    22:00 +2°C° 0 mm 1 mps 668 mmHg 89%
    23:00 +2°C° 0 mm 1 mps 668 mmHg 87%
    Show more